Regional Weather Roundup
Issued by NWS

Home | Current Version | Previous Version | Graphics & Text | Print | Product List | Glossary Off
Versions: 1 2 3 4 5 6 7 8 9 10 11 12 13 14 15 16 17 18 19 20 21 22 23 24 25 26 27 28 29 30 31 32 33 34 35 36 37 38 39 40 41 42 43 44 45 46 47 48 49 50

478
ASUS43 KTOP 232259
RWRKS

WEATHER ROUNDUP FOR KANSAS
NATIONAL WEATHER SERVICE GOODLAND KS
600 PM CDT TUE MAY 23 2017

NOTE:  "FAIR" INDICATES FEW OR NO CLOUDS BELOW 12,000 FEET WITH NO
SIGNIFICANT WEATHER AND/OR OBSTRUCTIONS TO VISIBILITY.

KSZ001>006-013>018-027>032-041>047-240000-
NORTHWEST KANSAS

CITY           SKY/WX    TMP DP  RH WIND       PRES   REMARKS
GOODLAND       CLOUDY    59  36  42 N20G25    30.02S
HAYS           PTSUNNY   61  38  42 N23       29.94S
HILL CITY      PTSUNNY   63  35  35 N29G36    29.97S
RUSSELL        CLOUDY    60  41  49 N22G31    29.92S
$$

KSZ061>065-074>080-084>089-240000-
SOUTHWEST KANSAS

CITY           SKY/WX    TMP DP  RH WIND       PRES   REMARKS
DODGE CITY     CLOUDY    61  40  45 N16       29.97F
ELKHART          N/A     63  31  30 NW13        N/A
GARDEN CITY    CLOUDY    61  37  41 N18G26    30.00R
GREAT BEND     CLOUDY    62  42  47 N21G30    29.92F
LIBERAL        CLOUDY    62  40  44 N15       30.02R
$$

KSZ066>073-081>083-090>101-240000-
SOUTHEAST KANSAS

CITY           SKY/WX    TMP DP  RH WIND       PRES   REMARKS
CHANUTE        CLOUDY    67  44  43 MISG      29.82S
COFFEYVILLE    CLOUDY    68  50  52 N9        29.82S
HUTCHINSON     CLOUDY    62  43  49 N18G25    29.89F
MEDICINE LODGE   N/A     60  44  55 N20G26    29.92R
NEWTON         CLOUDY    59  44  57 N16       29.88F
PARSONS        CLOUDY    69  47  45 NW12      29.83S
WICHITA INTL   CLOUDY    57  49  74 NW10      29.90R
WICHITA JABRA  CLOUDY    60  41  49 NW16      29.88R
WICHITA MCCONL CLOUDY    61  41  48 NW12G23   29.89R
WINFIELD       CLOUDY    58  46  64 NW12G21   29.88S
$$

KSZ007>012-019>026-033>040-048>060-102>105-240000-
NORTHEAST KANSAS

CITY           SKY/WX    TMP DP  RH WIND       PRES   REMARKS
CONCORDIA      PTSUNNY   59  44  57 N16G29    29.90S
EMPORIA        LGT RAIN  52  50  93 NW3       29.85S
LAWRENCE       LGT RAIN  54  52  93 NW15G21   29.82R FOG
MANHATTAN      CLOUDY    61  44  53 NW10G20   29.85F
OLATHE IND     LGT RAIN  59  48  67 VRB6      29.81F
OLATHE EXE     CLOUDY    60  48  64 N6        29.80F
SALINA         MOSUNNY   64  43  46 N21G31    29.89S
TOPEKA BILLARD CLOUDY    57  53  86 NW7       29.83S
TOPEKA FORBES  CLOUDY    58  49  72 NW12      29.83R
$$




USA.gov is the U.S. government's official web portal to all federal, state and local government web resources and services.